When you browse on this site, cookies collect data to enhance your experience and personalize the content and advertising you see.
Visit our Privacy Policy to learn more. By continuing to use the site, you agree to this use of cookies and data.
  • In Slovakia
  • List of Countries
  • For 7 days
  • Water Temperature
  • Satellite Maps
  • Weather Map
  • Weather Widgets
  • user-avatar
    Login

    Hourly Weather Mitagi-Kazmalyar

    Today, 27 June, Thursday

    Time Temperature Precipitation Wind Pressure Humidity
    00:00 +24°C° 0.2 mm 2 mps 734 mmHg 71%
    01:00 +24°C° 0.1 mm 2 mps 734 mmHg 72%
    02:00 +23°C° 0.1 mm 1 mps 734 mmHg 73%
    03:00 +23°C° 0.1 mm 1 mps 734 mmHg 74%
    04:00 +24°C° 0 mm 1 mps 734 mmHg 70%
    05:00 +23°C° 0 mm 0 mps 734 mmHg 66%
    06:00 +24°C° 0 mm 0 mps 734 mmHg 62%
    07:00 +27°C° 0 mm 1 mps 734 mmHg 58%
    08:00 +28°C° 0 mm 1 mps 734 mmHg 53%
    09:00 +30°C° 0 mm 2 mps 734 mmHg 49%
    10:00 +30°C° 0.1 mm 2 mps 734 mmHg 49%
    11:00 +30°C° 0.1 mm 3 mps 733 mmHg 49%
    12:00 +30°C° 0.1 mm 3 mps 733 mmHg 50%
    13:00 +30°C° 0.1 mm 3 mps 733 mmHg 48%
    14:00 +31°C° 0.1 mm 3 mps 732 mmHg 47%
    15:00 +31°C° 0.1 mm 3 mps 732 mmHg 46%
    16:00 +30°C° 0 mm 3 mps 732 mmHg 49%
    17:00 +29°C° 0 mm 3 mps 731 mmHg 53%
    18:00 +28°C° 0 mm 2 mps 731 mmHg 56%
    19:00 +26°C° 0 mm 2 mps 731 mmHg 61%
    20:00 +25°C° 0 mm 2 mps 731 mmHg 66%
    21:00 +23°C° 0 mm 1 mps 731 mmHg 70%
    22:00 +23°C° 0 mm 2 mps 730 mmHg 69%
    23:00 +23°C° 0 mm 2 mps 730 mmHg 69%

    Tomorrow, 28 June, Friday

    Time Temperature Precipitation Wind Pressure Humidity
    00:00 +23°C° 0 mm 2 mps 730 mmHg 68%
    01:00 +23°C° 0 mm 2 mps 730 mmHg 67%
    02:00 +21°C° 0 mm 2 mps 729 mmHg 67%
    03:00 +21°C° 0 mm 2 mps 729 mmHg 67%
    04:00 +23°C° 0 mm 2 mps 729 mmHg 64%
    05:00 +24°C° 0 mm 2 mps 729 mmHg 61%
    06:00 +25°C° 0 mm 2 mps 729 mmHg 58%
    07:00 +27°C° 0 mm 3 mps 729 mmHg 52%
    08:00 +29°C° 0 mm 3 mps 728 mmHg 46%
    09:00 +30°C° 0 mm 3 mps 728 mmHg 40%
    10:00 +32°C° 0 mm 4 mps 728 mmHg 39%
    11:00 +33°C° 0 mm 4 mps 727 mmHg 38%
    12:00 +33°C° 0 mm 4 mps 727 mmHg 37%
    13:00 +33°C° 0 mm 4 mps 726 mmHg 38%
    14:00 +33°C° 0 mm 4 mps 726 mmHg 39%
    15:00 +32°C° 0 mm 4 mps 726 mmHg 40%
    16:00 +31°C° 0 mm 3 mps 725 mmHg 42%
    17:00 +30°C° 0 mm 3 mps 725 mmHg 45%
    18:00 +29°C° 0 mm 2 mps 725 mmHg 48%
    19:00 +28°C° 0 mm 2 mps 725 mmHg 53%
    20:00 +26°C° 0 mm 2 mps 725 mmHg 58%
    21:00 +24°C° 0 mm 1 mps 725 mmHg 64%
    22:00 +24°C° 0.1 mm 1 mps 725 mmHg 63%
    23:00 +25°C° 0.1 mm 1 mps 725 mmHg 62%

    Day after tomorrow, 29 June, Saturday

    Time Temperature Precipitation Wind Pressure Humidity
    00:00 +25°C° 0.1 mm 1 mps 725 mmHg 61%
    01:00 +24°C° 0.2 mm 3 mps 725 mmHg 66%
    02:00 +23°C° 0.2 mm 4 mps 725 mmHg 72%
    03:00 +22°C° 0.2 mm 6 mps 725 mmHg 77%
    04:00 +23°C° 0 mm 6 mps 725 mmHg 77%
    05:00 +23°C° 0 mm 5 mps 725 mmHg 77%
    06:00 +25°C° 0 mm 5 mps 725 mmHg 77%
    07:00 +26°C° 0 mm 5 mps 725 mmHg 73%
    08:00 +27°C° 0 mm 5 mps 726 mmHg 69%
    09:00 +28°C° 0 mm 6 mps 726 mmHg 64%
    10:00 +28°C° 0 mm 6 mps 726 mmHg 64%
    11:00 +28°C° 0 mm 5 mps 726 mmHg 65%
    12:00 +28°C° 0 mm 5 mps 726 mmHg 65%
    13:00 +27°C° 0.4 mm 4 mps 725 mmHg 70%
    14:00 +26°C° 0.4 mm 4 mps 725 mmHg 75%
    15:00 +25°C° 0.4 mm 3 mps 725 mmHg 79%
    16:00 +25°C° 0.7 mm 3 mps 725 mmHg 80%
    17:00 +25°C° 0.7 mm 3 mps 725 mmHg 81%
    18:00 +25°C° 0.7 mm 4 mps 725 mmHg 81%
    19:00 +23°C° 0.5 mm 4 mps 725 mmHg 84%
    20:00 +22°C° 0.5 mm 5 mps 726 mmHg 87%
    21:00 +21°C° 0.5 mm 5 mps 726 mmHg 90%
    22:00 +21°C° 0.6 mm 6 mps 726 mmHg 90%
    23:00 +21°C° 0.6 mm 6 mps 726 mmHg 90%

    30 June, Sunday

    Time Temperature Precipitation Wind Pressure Humidity
    00:00 +20°C° 0.6 mm 6 mps 726 mmHg 90%
    01:00 +20°C° 2.8 mm 7 mps 727 mmHg 90%
    02:00 +18°C° 2.8 mm 8 mps 727 mmHg 90%
    03:00 +18°C° 2.8 mm 8 mps 727 mmHg 90%
    04:00 +18°C° 0.6 mm 8 mps 727 mmHg 90%
    05:00 +17°C° 0.6 mm 7 mps 728 mmHg 89%
    06:00 +17°C° 0.6 mm 7 mps 728 mmHg 88%
    07:00 +19°C° 0.2 mm 6 mps 728 mmHg 84%
    08:00 +19°C° 0.2 mm 6 mps 729 mmHg 80%
    09:00 +20°C° 0.2 mm 5 mps 729 mmHg 76%
    10:00 +21°C° 0 mm 5 mps 729 mmHg 70%
    11:00 +22°C° 0 mm 5 mps 729 mmHg 63%
    12:00 +23°C° 0 mm 5 mps 730 mmHg 56%
    13:00 +23°C° 0 mm 5 mps 729 mmHg 57%
    14:00 +23°C° 0 mm 5 mps 729 mmHg 57%
    15:00 +23°C° 0 mm 5 mps 729 mmHg 58%
    16:00 +22°C° 0 mm 4 mps 729 mmHg 59%
    17:00 +22°C° 0 mm 3 mps 729 mmHg 60%
    18:00 +21°C° 0 mm 2 mps 729 mmHg 61%
    19:00 +21°C° 0.1 mm 2 mps 729 mmHg 65%
    20:00 +21°C° 0.1 mm 1 mps 730 mmHg 68%
    21:00 +20°C° 0.1 mm 1 mps 730 mmHg 71%
    22:00 +19°C° 1.2 mm 3 mps 730 mmHg 77%
    23:00 +18°C° 1.2 mm 4 mps 730 mmHg 83%

    1 July, Monday

    Time Temperature Precipitation Wind Pressure Humidity
    00:00 +16°C° 1.2 mm 6 mps 730 mmHg 89%
    01:00 +15°C° 2.6 mm 6 mps 730 mmHg 90%
    02:00 +15°C° 2.6 mm 7 mps 730 mmHg 91%
    03:00 +14°C° 2.6 mm 7 mps 730 mmHg 92%
    04:00 +14°C° 2.8 mm 7 mps 731 mmHg 91%
    05:00 +14°C° 2.8 mm 7 mps 731 mmHg 90%
    06:00 +14°C° 2.8 mm 7 mps 731 mmHg 89%
    07:00 +14°C° 1.8 mm 6 mps 731 mmHg 88%
    08:00 +14°C° 1.8 mm 5 mps 732 mmHg 88%
    09:00 +14°C° 1.8 mm 4 mps 732 mmHg 88%
    10:00 +14°C° 1.9 mm 4 mps 732 mmHg 86%
    11:00 +15°C° 1.9 mm 4 mps 732 mmHg 85%
    12:00 +15°C° 1.9 mm 4 mps 732 mmHg 83%
    13:00 +16°C° 0.6 mm 3 mps 732 mmHg 77%
    14:00 +17°C° 0.6 mm 2 mps 732 mmHg 71%
    15:00 +19°C° 0.6 mm 1 mps 732 mmHg 65%
    16:00 +18°C° 0 mm 2 mps 732 mmHg 64%
    17:00 +19°C° 0 mm 2 mps 732 mmHg 63%
    18:00 +19°C° 0 mm 2 mps 732 mmHg 62%
    19:00 +18°C° 0 mm 2 mps 733 mmHg 64%
    20:00 +17°C° 0 mm 2 mps 733 mmHg 66%
    21:00 +17°C° 0 mm 2 mps 733 mmHg 68%
    22:00 +17°C° 0 mm 3 mps 733 mmHg 67%
    23:00 +17°C° 0 mm 3 mps 733 mmHg 66%

    2 July, Tuesday

    Time Temperature Precipitation Wind Pressure Humidity
    00:00 +17°C° 0 mm 4 mps 733 mmHg 65%
    01:00 +17°C° 0 mm 4 mps 733 mmHg 64%
    02:00 +16°C° 0 mm 3 mps 734 mmHg 63%
    03:00 +16°C° 0 mm 3 mps 734 mmHg 63%
    04:00 +17°C° 0 mm 3 mps 734 mmHg 62%
    05:00 +17°C° 0 mm 3 mps 734 mmHg 62%
    06:00 +18°C° 0 mm 2 mps 734 mmHg 61%
    07:00 +20°C° 0 mm 3 mps 734 mmHg 56%
    08:00 +21°C° 0 mm 3 mps 734 mmHg 50%
    09:00 +23°C° 0 mm 4 mps 735 mmHg 45%
    10:00 +25°C° 0 mm 4 mps 734 mmHg 44%
    11:00 +25°C° 0 mm 5 mps 734 mmHg 44%
    12:00 +26°C° 0 mm 6 mps 734 mmHg 43%
    13:00 +26°C° 0 mm 6 mps 734 mmHg 45%
    14:00 +26°C° 0 mm 6 mps 734 mmHg 46%
    15:00 +26°C° 0 mm 6 mps 734 mmHg 47%
    16:00 +26°C° 0 mm 6 mps 734 mmHg 51%
    17:00 +24°C° 0 mm 6 mps 733 mmHg 55%
    18:00 +23°C° 0 mm 5 mps 733 mmHg 58%
    19:00 +22°C° 0 mm 5 mps 733 mmHg 63%
    20:00 +20°C° 0 mm 4 mps 734 mmHg 68%
    21:00 +19°C° 0 mm 3 mps 734 mmHg 73%
    22:00 +19°C° 0 mm 3 mps 733 mmHg 70%
    23:00 +19°C° 0 mm 2 mps 733 mmHg 67%
    Show more